Regional Weather Roundup
Issued by NWS

Home | Current Version | Previous Version | Text Only | Print | Product List | Glossary Off
Versions: 1 2 3 4 5 6 7 8 9 10 11 12 13 14 15 16 17 18 19 20 21 22 23 24 25 26 27 28 29 30 31 32 33 34 35 36 37 38 39 40 41 42 43 44 45 46 47 48 49 50

000
ASUS43 KBIS 201320
RWRND

NORTH DAKOTA REGIONAL WEATHER ROUNDUP
NATIONAL WEATHER SERVICE BISMARCK ND
700 AM CST SAT DEC 20 2014

NOTE: "FAIR" INDICATES FEW OR NO CLOUDS BELOW 12,000 FEET WITH NO
SIGNIFICANT WEATHER AND/OR OBSTRUCTIONS TO VISIBILITY.


NDZ001>003-009>011-017-201400-
NORTHWEST NORTH DAKOTA

CITY           SKY/WX    TMP DP  RH WIND       PRES   REMARKS
WILLISTON      CLOUDY    19  17  92 CALM      29.84S
MINOT          FOG       23  21  92 SE8       29.89F VSB 1/4 WCI  14
MINOT AFB      FRZ DRZL  22  22 100 SE3       29.89S VSB 1/2
$$

NDZ018>021-031>035-040>046-201400-
SOUTHWEST NORTH DAKOTA

CITY           SKY/WX    TMP DP  RH WIND       PRES   REMARKS
BISMARCK       CLOUDY    16  14  92 E6        29.93F FOG     WCI   7
DICKINSON      CLOUDY    30  25  81 S6        29.82S
GARRISON         N/A     20  17  88 SE6       29.89S WCI  12
HETTINGER ARPT CLOUDY    30  24  78 CALM      29.87R
$$

NDZ004>008-012>016-024-026-027-054-201400-
NORTHEAST NORTH DAKOTA

CITY           SKY/WX    TMP DP  RH WIND       PRES   REMARKS
GRAND FORKS    CLOUDY    28  26  92 SW9       30.00R WCI  19
GRND FRKS AFB  CLOUDY    27  27 100 SW7       29.99S WCI  19
DEVILS LAKE    CLOUDY    21  16  79 S3        29.95R
$$

NDZ022-023-025-028>030-036>039-047>053-201400-
SOUTHEAST NORTH DAKOTA

CITY           SKY/WX    TMP DP  RH WIND       PRES   REMARKS
FARGO          CLOUDY    30  27  88 S12       30.02S
JAMESTOWN      FOG       20  17  88 S6        29.96S VSB 1/2 WCI  12
$$




USA.gov is the U.S. government's official web portal to all federal, state and local government web resources and services.